Location: �terpigny
(49.8910°N, 2.9249°E)
Time: 06:19:35
(UTC+00:00)

Gurwin Techsat 1B - Pass Details

Date: 30 June 2022
Orbit: 812 x 813 km, 98.8° (Epoch: 14 August)

Event Time Altitude Azimuth Distance (km) Brightness Sun altitude
Rises 02:21:47 0° 16° (NNE) 3,348 13.4 -9.7°
Reaches altitude 10° 02:24:10 10° 19° (NNE) 2,412 12.5 -9.5°
Maximum altitude 02:29:29 70° 103° (ESE) 866 8.9 -9.0°
Drops below altitude 10° 02:34:46 10° 188° (S) 2,395 10.5 -8.5°
Enters shadow 02:35:33 - 189° (S) 2,700 10.8 -8.4°
